Back to catalog

STARLINK-35881

AliveCommunicationsVLEO
NORAD 66830·PAYLOAD·🇺🇸 United States

Launched Dec 2, 2025 from Vandenberg Space Force Base

Loading…

Next Passes (next 24 hours)

TLE

FreshSource: CelesTrak SupGP

Epoch: Sep 14, 2026, 22:59 UTC

1 66830C 25280K   26257.95812500 -.00024174  00000+0 -20256-2 0  2575
2 66830  70.0011 217.4075 0002831 270.4093  44.7403 14.98347826    14

Track STARLINK-35881 in real time with AllMySat

Download on the App Store